16.12.2018Höhe
ü. NN
ZeitTemperatur (°C)Nieder-
schlag
Luft-
feuchte
Luft-
druck
Wind
StationaktuellMinimumMaximumaktuellMaximum
Aldingen654 m03:26-4,2-4,8 (20:27)-3,8 (14:11)0,4 l/m²89%1017,714,8 km/h (3 Bft) SO24,1 km/h (4 Bft) SO (21:58)
Allmendingen541 m03:25-4,4-7,2 (23:55)-4,4 (14:05)0,0 l/m²90%1017,20,0 km/h (0 Bft) S-SO17,7 km/h (3 Bft) SO (20:00)
Altshausen574 m03:25-5,6-6,7 (00:00)-5,6 (02:29)0,0 l/m²89%1013,93,2 km/h (1 Bft) S4,8 km/h (1 Bft) W-SW (00:51)
Amstetten-Reutti663 m03:25-5,1-5,4 (00:10)-4,8 (15:40)0,0 l/m²92%1016,824,1 km/h (4 Bft) O-SO33,8 km/h (5 Bft) O (20:40)
Amtzell-Grenis677 m03:25-5,6-7,4 (00:05)-5,3 (03:15)0,0 l/m²83%1019,18,0 km/h (2 Bft) S-SO11,3 km/h (2 Bft) O (00:30)
Aulendorf570 m03:25-5,2-5,4 (00:00)-5,2 (02:34)0,0 l/m²86%1017,00,0 km/h (0 Bft) NO8,0 km/h (2 Bft) NO (00:02)
Bad Krozingen233 m03:25-1,2-1,8 (20:40)-1,2 (13:25)0,0 l/m²94%1015,43,3 km/h (1 Bft) NW9,9 km/h (2 Bft) N (14:30)
Bad Saulgau595 m03:25-5,4-6,8 (22:55)-5,4 (14:10)0,0 l/m²90%1016,43,2 km/h (1 Bft) NW19,3 km/h (3 Bft) W (10:40)
Bad Saulgau-Lampertsweiler627 m03:25-5,8-6,3 (01:15)-5,8 (00:00)0,0 l/m²86%1019,611,3 km/h (2 Bft) SO11,3 km/h (2 Bft) SO (03:20)
Bad Schussenried572 m03:25-5,2-6,7 (00:00)-5,2 (03:00)0,0 l/m²92%1015,70,0 km/h (0 Bft) O0,0 km/h (0 Bft) O (00:00)
Biberach (Riss), Boehringer533 m03:20-4,3-6,1 (00:00)-4,2 (03:20)0,0 l/m²83%1015,95,4 km/h (1 Bft) SW13,0 km/h (3 Bft) S-SW (03:20)
Biberach (Riss), Realschule553 m03:25-5,0-5,3 (00:00)-4,9 (02:50)0,0 l/m²86%1018,14,8 km/h (1 Bft) SO16,1 km/h (3 Bft) O (00:25)
Bodnegg-Rotheidlen677 m03:25-5,9-6,9 (00:00)-5,4 (02:30)0,0 l/m²89%1017,60,0 km/h (0 Bft) SW11,3 km/h (2 Bft) SW (02:00)
Burgrieden523 m03:25-5,1-6,1 (00:05)-5,1 (02:30)0,0 l/m²84%1017,30,0 km/h (0 Bft) O-SO12,9 km/h (3 Bft) O (01:10)
Burgrieden-Hochstetten510 m03:25-4,6-6,4 (23:21)-4,6 (11:45)0,0 l/m²88%1017,58,0 km/h (2 Bft) SO20,9 km/h (4 Bft) O-SO (15:25)
Ebersbach579 m03:25-5,4-6,9 (00:00)-5,4 (03:20)0,0 l/m²93%1018,30,0 km/h (0 Bft) O-NO0,0 km/h (0 Bft) NO (00:00)
Ebersbach-Boos605 m03:25-5,8-6,8 (00:00)-5,8 (03:10)0,0 l/m²93%1018,00,0 km/h (0 Bft) W-SW0,0 km/h (0 Bft) O-SO (00:00)
Ebersbach-Menzenweiler661 m03:25-5,7-6,2 (00:05)-5,7 (02:55)0,0 l/m²91%1018,09,7 km/h (2 Bft) S-SO11,3 km/h (2 Bft) O-NO (00:05)
Erlenmoos645 m03:25-5,2-6,2 (00:05)-5,2 (03:20)0,0 l/m²92%1017,58,0 km/h (2 Bft) SO16,1 km/h (3 Bft) O-SO (00:00)
Ertingen569 m03:25-5,1-6,1 (00:00)-5,1 (03:05)0,0 l/m²90%1017,21,6 km/h (1 Bft) NO4,8 km/h (1 Bft) NO (00:20)
Friedrichshafen405 m03:25-3,9-4,7 (22:40)-3,9 (14:45)0,0 l/m²84%1017,84,8 km/h (1 Bft) NO14,5 km/h (3 Bft) O-NO (08:45)
Günzburg443 m03:20-3,8-4,2 (00:50)-3,7 (00:00)0,0 l/m²83%1015,00,0 km/h (0 Bft) N8,0 km/h (2 Bft) O-SO (01:35)
Höchsten802 m03:25-6,1-6,4 (00:00)-5,8 (02:00)0,0 l/m²90%1015,70,0 km/h (0 Bft) S-SW12,9 km/h (3 Bft) SW (02:45)
Horgenzell618 m03:25-3,3-3,3 (00:00)-3,3 (00:00)0,0 l/m²86%1010,612,9 km/h (3 Bft) O-NO12,9 km/h (3 Bft) O-NO (00:00)
Hoßkirch632 m03:25-5,7-8,0 (00:00)-5,7 (03:20)0,0 l/m²93%1016,90,0 km/h (0 Bft) S9,7 km/h (2 Bft) W (00:45)
Isny, Am Dreifingerbach695 m03:25-5,9-9,1 (00:00)-5,9 (03:25)0,0 l/m²89%1017,811,3 km/h (2 Bft) O-SO11,3 km/h (2 Bft) O-SO (03:25)
Isny, Weidachweg706 m03:25-5,8-9,0 (00:15)-5,7 (03:25)0,0 l/m²83%1019,53,2 km/h (1 Bft) S-SO9,7 km/h (2 Bft) S-SO (03:15)
Kappel-Grafenhausen163 m03:20-1,2-1,6 (20:10)-0,9 (13:55)0,0 l/m²90%1013,54,8 km/h (1 Bft) S-SW12,9 km/h (3 Bft) W (15:00)
Kirchberg an der Iller584 m03:25-5,3-5,8 (23:50)-5,3 (15:10)0,0 l/m²86%1007,70,0 km/h (0 Bft) NO13,8 km/h (3 Bft) W-NW (17:10)
Kißlegg-Staibshof709 m03:25-6,3-6,9 (00:15)-6,3 (02:30)0,0 l/m²92%1017,90,0 km/h (0 Bft) SW0,0 km/h (0 Bft) O-NO (00:00)
Kressbronn398 m03:26-3,7-5,4 (00:00)-3,7 (03:26)0,0 l/m²83%1016,63,2 km/h (1 Bft) O6,4 km/h (2 Bft) O (02:10)
Kreuzthal-Steinberg-Alpe930 m03:20-6,0-7,9 (00:10)-5,5 (02:50)0,0 l/m²100%1018,01,1 km/h (1 Bft) SW7,9 km/h (2 Bft) SO (01:50)
Kreuzthal-Steinberggipfel1040 m03:20-6,2-6,8 (00:10)-4,8 (01:20)-100%1018,03,2 km/h (1 Bft) S13,3 km/h (3 Bft) W-SW (03:00)
Kristberg im Montafon (AT)1425 m03:25-2,2-3,9 (00:00)-1,7 (02:40)0,0 l/m²39%1018,40,0 km/h (0 Bft) N-NO9,7 km/h (2 Bft) NO (00:45)
Laupheim500 m03:25-4,9-6,0 (00:10)-4,8 (02:05)0,0 l/m²84%1016,76,4 km/h (2 Bft) S9,7 km/h (2 Bft) O-SO (00:55)
Leutkirch-Heggelbach670 m03:25-6,1-8,3 (00:00)-6,1 (03:20)0,0 l/m²92%1017,10,0 km/h (0 Bft) S0,0 km/h (0 Bft) N-NO (00:00)
Lindau-Insel420 m03:25-2,6-4,7 (00:00)-2,6 (14:25)0,0 l/m²84%1017,01,6 km/h (1 Bft) O-NO14,5 km/h (3 Bft) NO (11:35)
Lindau-Stadt412 m03:25-3,8-5,2 (23:10)-3,8 (11:15)0,0 l/m²86%1017,41,6 km/h (1 Bft) O-NO11,3 km/h (2 Bft) NO (11:30)
Maierhöfen im Allgäu733 m03:25-6,1-10,7 (00:00)-6,1 (03:25)0,0 l/m²91%1018,98,0 km/h (2 Bft) O8,0 km/h (2 Bft) O (03:25)
Maselheim-Sulmingen548 m03:25-5,5-7,5 (00:00)-5,5 (12:25)0,0 l/m²88%1018,46,4 km/h (2 Bft) SO20,9 km/h (4 Bft) O (14:00)
Mietingen-Baltringen528 m03:25-5,1-6,6 (00:05)-5,1 (03:10)0,0 l/m²82%1019,04,8 km/h (1 Bft) SO11,3 km/h (2 Bft) O (00:45)
Mindelheim-Apfeltrach620 m03:26-6,9-7,9 (00:20)-6,9 (03:19)0,0 l/m²90%1019,00,0 km/h (0 Bft) SO9,7 km/h (2 Bft) SO (01:07)
Neresheim552 m00:00-5,0-5,0 (00:00)-5,0 (00:00)0,0 l/m²85%1016,65,0 km/h (1 Bft) S-SO5,0 km/h (1 Bft) S-SO (00:00)
Neukirch570 m03:25-5,2-6,1 (23:00)-5,2 (14:55)0,0 l/m²88%1018,04,8 km/h (1 Bft) N-NO20,9 km/h (4 Bft) O-NO (11:50)
Ochsenhausen, Birkenstraße613 m03:25-5,4-6,2 (23:00)-5,4 (15:20)0,0 l/m²83%1017,74,8 km/h (1 Bft) O-NO19,3 km/h (3 Bft) O-NO (14:15)
Ostrach619 m03:25-4,6-6,1 (22:35)-4,6 (14:10)0,0 l/m²91%1016,34,8 km/h (1 Bft) O-NO17,7 km/h (3 Bft) N-NO (14:45)
Ravensburg428 m03:25-3,8-4,9 (01:00)-3,7 (03:20)0,0 l/m²84%1016,81,6 km/h (1 Bft) N9,7 km/h (2 Bft) NO (00:00)
Reichenbach an der Fils343 m03:25-1,9-3,3 (00:00)-1,9 (03:20)0,0 l/m²77%1018,624,1 km/h (4 Bft) O30,6 km/h (5 Bft) O-SO (00:45)
Reinstetten559 m03:25-5,4-6,4 (00:00)-5,4 (03:05)0,0 l/m²88%1017,70,0 km/h (0 Bft) S-SO11,3 km/h (2 Bft) O-SO (00:20)
Riedlingen530 m03:25-4,8-5,2 (00:05)-4,7 (03:25)0,0 l/m²88%1017,20,0 km/h (0 Bft) O0,0 km/h (0 Bft) O-NO (00:00)
Rißtissen489 m03:25-3,9-4,8 (00:00)-3,9 (03:25)0,0 l/m²88%1014,80,0 km/h (0 Bft) O-SO9,7 km/h (2 Bft) O (01:15)
Schemmerhofen520 m03:25-4,8-5,2 (00:00)-4,8 (02:45)0,0 l/m²90%1016,70,0 km/h (0 Bft) O-NO6,4 km/h (2 Bft) O-NO (00:20)
Silbertal im Montafon (AT)884 m03:25-3,1-7,2 (00:00)-3,1 (03:25)0,0 l/m²88%1020,50,0 km/h (0 Bft) W3,2 km/h (1 Bft) W (03:00)
Tettnang466 m03:25-3,8-5,4 (00:00)-3,8 (03:15)0,0 l/m²85%1016,26,4 km/h (2 Bft) O-NO8,0 km/h (2 Bft) NO (03:20)
Tuttlingen662 m03:25-6,3-7,4 (00:00)-6,3 (03:00)0,2 l/m²88%1017,40,0 km/h (0 Bft) O-NO3,1 km/h (1 Bft) O-NO (03:10)
Ummendorf547 m03:25-5,0-5,5 (00:05)-4,9 (02:50)0,0 l/m²86%1018,14,8 km/h (1 Bft) O-SO14,5 km/h (3 Bft) SO (00:25)
Ummendorf-Fischbach558 m03:25-5,2-6,0 (00:00)-5,2 (03:00)0,0 l/m²87%1018,44,8 km/h (1 Bft) S9,7 km/h (2 Bft) S-SW (00:00)
Waldburg707 m03:25-5,1-6,7 (00:00)-4,9 (02:05)0,0 l/m²90%1017,40,0 km/h (0 Bft) N12,9 km/h (3 Bft) N (00:10)
Waltenhofen im Allgäu720 m03:25-8,8-12,3 (00:10)-8,8 (03:25)0,0 l/m²91%1018,30,0 km/h (0 Bft) S4,8 km/h (1 Bft) S (01:45)
Weingarten500 m03:25-4,3-6,0 (00:00)-4,3 (03:25)0,0 l/m²86%1017,20,0 km/h (0 Bft) S6,4 km/h (2 Bft) O (02:05)
Winterlingen785 m01:15-6,9-7,1 (01:00)-6,9 (01:15)0,0 l/m²93%1016,01,8 km/h (1 Bft) SO3,6 km/h (1 Bft) SO (00:10)

Werbung
niederschlagsdatenbank | info | login - erfassung

Sollten Sie Interesse haben, an der Niederschlagsdatenbank teilzunehmen, finden Sie > hier < weitere Informationen.

Niederschlagsdaten der Station Bad Waldsee-Haisterkirch - Zur Spitzenkapelle 1

Josef Zell

Niederschlagsstation aufgenommen ins Stationsnetz der Wetterwarte Süd am 01.03.2009
Monat: .
Anmerkung:0,0 = nicht messbarer Niederschlag
 -  = kein Niederschlag

Stationsdaten

Höhe

640 m

Lage

Auf Google Maps ansehen

Beschreibung

Zwei für die Region ungewöhnlich massive Gewitterregen mit Überschwemmungen erheblichen Ausmaßes binnen weniger Jahre um die Jahrtausendwende lieferten die Idee zum Aufstellen einer Wetterstation. Die Station liegt nur unweit vom Ortskern (Kirche, Rathaus / Klostergebäude). Auf Grund einer Weststaulage am Fuße des Haidgauer Berges (754 m Grabener Höhe / Aussichtspunkt Alpen bis Bussen) registriere ich an meiner Hobbystation in der Regel mehr Niederschlag als die offizielle Wetterstation im etwa 15 km westlicher liegenden Bad Schussenried. Die Windrichtung wird oft durch den Höhenzug lokal verändert. (Ostwinde hier oft aus Nord) Die Daten werden im 12-Minuten Turnus erfasst. Die Mindestmenge zur Registrierung beträgt 0,3l/qm. Es handelt sich um einen selbstentleerenden Wippenmesser. Der Regenmesser ist Solarbetrieben und ohne Heizung. Auf Grund dessen sind die Niederschlagsmengen bei Schneefall in der Regel nahezu NULL. Bei Tauwetter jedoch werden die fehlenden Mengen ausgeglichen. Die Werte sind also im Winter mit diesem Hintergrundwissen zu interpretieren!!!

Der bereits in einer Urkunde des Klosters St. Gallen aus dem Jahre 805 erstmals erwähnte Ort ist das Hauptort des etwa 1400 Einwohner zählenden Haistergaus. Etwa 4 km südlich von Haisterkirch und etwa 60 m höher gelegen ist bei der "Schanze" der Übergang in das "Wurzacher Becken". Im Norden läuft das Tal sanft zum Rißtal hin aus. Gut 1 km westlich (Richtung Bad Waldsee) wird das Tal durch eine Eiszeitmoräne begrenzt. Diese ist zugleich die Europäische Wasserscheide Rhein / Donau. Das Wasser der zahlreichen Quellen des im Osten angrenzenden Haidgauer Höhenzuges (Entfernung ca. 1.5 km, Höhe gut 100 m über dem Ort) fließt in den Haisterbach, von da in die Umlach. Diese in die Riß und schließlich in die Donau. Landwirtschaftliche Nutzfläche sowie mehrere Ortschaften und Weiler prägen das Tal. Einen Besuch wert sind insbesonders die Pfarrkirche, das Klostergebäude (beinhaltet unter anderem eine der schönsten Grundschulen des Landes sowie das Rathaus) und die Wallfahrtskapelle St. Sebastian. Auch das nur 2 km entfernte Naherholungsgebiet "Tannenbühl" mit Kletterpark, Spielplatz und zahlreichen Wildgehegen sowie Lehrpfaden ist ein das gesamte Jahr über beliebtes Ausflugsziel.
< November 2018

Dezember 2018

TagNiederschlagBemerkung
01.0,3
+2/+7°C, zur Früh des 2. Schauer
Regen
02.12,0
+3,5/+8,7°C, Regenwetter bis 12:00 und ab 19:00, Nacht zum 03. milder als manche Sommernacht
Regen
03.10,0
+9/+11,5°C, Regenwetter, lebhafter, nachts teils stürmischer W-Wind
Regen
04.5,5
+5/+9°C, mehrere Regengüsse über den Tag verteilt
Regen
05.3,5
+3/+7,5°C, vormittags stark bewölkt, nachmittags zeitweilig freundlich, nachts Regen
Regen Bodennebel
06.-
21:00: +4/+8,7°C, mild, überwiegend bewölkt
07.4,2
+6/+11°C, sehr mild, überwiegend bewölkt, teils Schauer, ab 22:00 abkühlend
Regen
08.6,2
+2/+6°C, stürmisch, zeitweise sonnig, oft bewölkt und regnerisch, gegen Ende 2. Nachthälfte Graupelsturm
Regen Graupel
09.5,0
+3/+7°C, Regenwetter bei teils kräftigen Windböen
Regen
10.3,0
+1/+4°C, windig, zeitweise aufgelockert, mehrere Schauer, Ende der 1. Nachthälfte kurzes Schneegestöber
Regen Schnee Graupel
11.0,3
-3/+2,5°C, nach nächtlichem Schneefall meist bewölkt, tags leichtes Tauwetter, zur Abenddämmerung Frost
Schnee
Schneehöhe: 2 cm
12.-
-6/+1°C, nach klarer Nacht überwiegend sonnig, VM zeitweilig Hochnebel, späterer Nachmittag Wolkenfelder
Schneehöhe: 1 cm
13.-
14.-
15.-
16.-
17.-
18.-
19.-
20.-
21.-
22.-
23.-
24.-
25.-
26.-
27.-
28.-
29.-
30.-
31.-
Gesamt:50,0 
Die Spalten "Tag" und "Niederschlag" lassen sich durch Klicken auf den Spaltenkopf sortieren.
Die Angaben sind in l/m².

< November 2018


Monats- und Jahresniederschlag


Wetterbeobachtungen Legende:

  • Regen
  • Nieselregen
  • Schneeregen
  • Schnee
  • Graupel
  • Eiskörner
  • Hagel
  • Bodennebel
  • Gewitter
  • Nebelnässe
  • Schneegriesel

Grafische Darstellung der Niederschläge der Station Bad Waldsee-Haisterkirch Dezember 2018

 
wetterstationen
wetterstationen
- derzeit 73 Stationen
niederschlagsdatenbank
wetterstationen
- kartographische Darstellung
niederschlagsdatenbank
niederschlagsstationen
- derzeit 102 Stationen
niederschlagsdatenbank
niederschlagsstationen
- kartographische Darstellung
 
  treffpunkt & service
--- Anzeigen --------------------------------
zugriffe:
insgesamt: 40.146.819
aktueller monat: 220.831
heute: 390
momentan online: 3
 
 
monatshöchstwert: 653.625
vorheriger monat: 361.432
gestern: 15.885
tageshöchstwert: 45.129
 
wetterwarte süd
 
konradstraße 3
info@wetterwarte-sued.com
roland roth
 
88427 bad schussenried